| time (UTC) | temp C | wind direction | speed KPH | gust KPH | rain 1hr cm | rain 24hr cm | rain mn cm | humidity % | barometer mb |
| 20260507104551 | 2 | 0.0 | 0.0 | 0.00 | 0.25 | 0.00 | 89 | 1011.0 | |
| 20260507103054 | -17 | 0.0 | 0.0 | 0.00 | 0.25 | 0.00 | 1010.9 | ||
| 20260507101550 | -17 | 0.0 | 0.0 | 0.00 | 0.25 | 0.00 | 1010.8 | ||
| 20260507100046 | -17 | 0.0 | 0.0 | 0.00 | 0.25 | 0.00 | 1010.8 | ||
| 20260507094542 | -17 | 0.0 | 0.0 | 0.00 | 0.25 | 0.00 | 1010.7 | ||
| 20260507093036 | -17 | 0.0 | 0.0 | 0.00 | 0.25 | 0.00 | 1010.7 | ||
| 20260507091536 | -17 | 0.0 | 0.0 | 0.00 | 0.25 | 0.00 | 1010.7 | ||
| 20260507090028 | -17 | 0.0 | 0.0 | 0.00 | 0.25 | 0.00 | 1010.8 | ||
| 20260507084529 | -17 | 0.0 | 0.0 | 0.00 | 0.25 | 0.00 | 1010.9 | ||
| 20260507083019 | -17 | 0.0 | 0.0 | 0.00 | 0.25 | 0.00 | 1010.9 | ||
| 20260507081527 | 3 | 0.0 | 0.0 | 0.00 | 0.25 | 0.00 | 89 | 1010.7 | |
| 20260507080016 | 3 | 0.0 | 0.0 | 0.00 | 0.25 | 0.00 | 88 | 1010.8 | |
| 20260507074516 | 3 | 0.0 | 0.0 | 0.00 | 0.25 | 0.00 | 89 | 1010.8 | |
| 20260507073013 | 3 | 0.0 | 0.0 | 0.00 | 0.25 | 0.00 | 89 | 1010.8 | |
| 20260507071511 | 4 | 0.0 | 0.0 | 0.00 | 0.25 | 0.00 | 90 | 1011.0 | |
| 20260507070012 | 4 | 0.0 | 0.0 | 0.00 | 0.25 | 0.00 | 90 | 1010.9 | |
| 20260507064506 | 5 | 0.0 | 0.0 | 0.00 | 0.25 | 0.00 | 89 | 1010.8 | |
| 20260507063004 | 5 | 0.0 | 0.0 | 0.00 | 0.25 | 0.00 | 89 | 1010.6 | |
| 20260507061502 | 5 | 0.0 | 0.0 | 0.00 | 0.25 | 0.00 | 91 | 1010.4 | |
| 20260507060200 | 5 | 0.0 | 0.0 | 0.00 | 0.25 | 0.00 | 92 | 1010.2 | |
| 20260507054600 | 6 | 0.0 | 0.0 | 0.00 | 0.25 | 0.00 | 94 | 1010.2 | |
| 20260507053059 | 6 | 0.0 | 0.0 | 0.00 | 0.25 | 0.00 | 95 | 1009.7 | |
| 20260507051557 | 5 | 0.0 | 0.0 | 0.00 | 0.25 | 0.00 | 95 | 1009.9 | |
| 20260507050056 | 5 | 0.0 | 0.0 | 0.00 | 0.25 | 0.00 | 95 | 1010.1 | |
| 20260507044609 | 5 | 0.0 | 0.0 | 0.00 | 0.25 | 0.00 | 95 | 1010.2 | |
| 20260507043104 | 5 | 0.0 | 0.0 | 0.00 | 0.25 | 0.00 | 95 | 1010.3 | |
| 20260507041557 | 5 | 0.0 | 0.0 | 0.00 | 0.25 | 0.00 | 94 | 1010.0 | |
| 20260507040049 | 5 | 0.0 | 0.0 | 0.00 | 0.25 | 0.00 | 94 | 1010.0 | |
| 20260507034552 | 5 | 0.0 | 0.0 | 0.00 | 0.25 | 0.25 | 94 | 1009.7 | |
| 20260507033047 | 5 | 0.0 | 0.0 | 0.00 | 0.25 | 0.25 | 94 | 1009.6 | |
| 20260507031548 | 5 | 0.0 | 0.0 | 0.00 | 0.25 | 0.25 | 94 | 1009.9 | |
| 20260507030047 | 5 | 0.0 | 0.0 | 0.00 | 0.25 | 0.25 | 94 | 1009.6 | |
| 20260507024551 | 5 | 0.0 | 0.0 | 0.00 | 0.25 | 0.25 | 93 | 1010.1 | |
| 20260507023057 | 5 | 0.0 | 0.0 | 0.00 | 0.25 | 0.25 | 94 | 1009.7 | |
| 20260507021543 | 5 | 0.0 | 0.0 | 0.00 | 0.25 | 0.25 | 94 | 1010.4 | |
| 20260507020050 | 5 | 0.0 | 0.0 | 0.00 | 0.25 | 0.25 | 93 | 1010.2 | |
| 20260507014541 | 5 | 0.0 | 0.0 | 0.00 | 0.25 | 0.25 | 93 | 1010.0 | |
| 20260507013040 | 5 | 0.0 | 0.0 | 0.00 | 0.25 | 0.25 | 93 | 1010.0 | |
| 20260507011545 | 5 | 0.0 | 0.0 | 0.00 | 0.25 | 0.25 | 93 | 1010.1 | |
| 20260507010038 | 6 | 0.0 | 0.0 | 0.00 | 0.25 | 0.25 | 93 | 1009.9 | |
| 20260507004536 | 6 | 0.0 | 0.0 | 0.00 | 0.25 | 0.25 | 94 | 1009.9 | |
| 20260507003033 | 6 | 0.0 | 0.0 | 0.00 | 0.25 | 0.25 | 94 | 1009.4 | |
| 20260507001603 | 6 | 0.0 | 0.0 | 0.00 | 0.25 | 0.25 | 93 | 1009.3 | |
| 20260507000040 | 6 | 0.0 | 0.0 | 0.00 | 0.25 | 0.25 | 93 | 1009.2 | |
| 20260506234531 | 6 | 0.0 | 0.0 | 0.00 | 0.25 | 0.25 | 93 | 1009.0 | |
| 20260506233029 | 6 | 0.0 | 0.0 | 0.00 | 0.25 | 0.25 | 93 | 1008.7 | |
| 20260506231529 | 6 | 0.0 | 0.0 | 0.00 | 0.25 | 0.25 | 93 | 1008.8 | |
| 20260506230040 | 6 | 0.0 | 0.0 | 0.00 | 0.25 | 0.25 | 93 | 1008.7 | |
| 20260506224524 | 6 | 0.0 | 0.0 | 0.00 | 0.25 | 0.25 | 93 | 1008.5 | |
| 20260506223028 | 6 | 0.0 | 0.0 | 0.00 | 0.25 | 0.25 | 94 | 1008.3 | |
| 20260506221520 | 6 | 0.0 | 0.0 | 0.00 | 0.25 | 0.25 | 94 | 1007.8 | |
| 20260506220019 | 6 | 0.0 | 0.0 | 0.00 | 0.25 | 0.25 | 94 | 1007.6 | |
| 20260506214517 | 7 | 0.0 | 0.0 | 0.00 | 0.25 | 0.25 | 94 | 1007.5 | |
| 20260506213016 | 7 | 0.0 | 0.0 | 0.00 | 0.25 | 0.25 | 94 | 1007.5 | |
| 20260506211512 | 7 | 0.0 | 0.0 | 0.00 | 0.25 | 0.25 | 94 | 1007.1 | |
| 20260506210022 | 7 | 0.0 | 0.0 | 0.03 | 0.25 | 0.25 | 94 | 1006.7 | |
| 20260506204510 | 7 | 0.0 | 0.0 | 0.03 | 0.33 | 0.25 | 94 | 1006.4 | |
| 20260506203010 | 7 | 0.0 | 0.0 | 0.03 | 0.33 | 0.25 | 94 | 1006.1 | |
| 20260506201510 | 8 | 0.0 | 0.0 | 0.03 | 0.33 | 0.25 | 94 | 1005.5 | |
| 20260506200006 | 8 | 0.0 | 0.0 | 0.00 | 0.30 | 0.23 | 94 | 1005.7 | |
| 20260506194506 | 8 | 0.0 | 0.0 | 0.00 | 0.38 | 0.23 | 94 | 1005.5 | |
| 20260506193001 | 8 | 0.0 | 0.0 | 0.00 | 0.38 | 0.23 | 94 | 1005.4 | |
| 20260506191600 | 8 | 0.0 | 0.0 | 0.00 | 0.38 | 0.23 | 93 | 1005.3 | |
| 20260506190058 | 9 | 0.0 | 0.0 | 0.00 | 0.38 | 0.23 | 93 | 1004.9 | |
| 20260506184555 | 10 | 0.0 | 0.0 | 0.00 | 0.38 | 0.23 | 91 | 1004.7 | |
| 20260506183049 | 10 | 0.0 | 0.0 | 0.00 | 0.38 | 0.23 | 89 | 1004.8 | |
| 20260506181554 | 12 | 0.0 | 0.0 | 0.00 | 0.38 | 0.23 | 88 | 1004.4 | |
| 20260506180050 | 13 | 0.0 | 0.0 | 0.03 | 0.38 | 0.23 | 94 | 1003.9 | |
| 20260506174546 | 13 | 0.0 | 0.0 | 0.03 | 0.38 | 0.23 | 94 | 1003.9 | |
| 20260506173048 | 13 | 0.0 | 0.0 | 0.03 | 0.38 | 0.23 | 94 | 1003.8 | |
| 20260506171545 | 13 | 0.0 | 0.0 | 0.08 | 0.38 | 0.23 | 95 | 1003.8 | |
| 20260506170052 | 13 | 0.0 | 0.0 | 0.05 | 0.36 | 0.20 | 95 | 1003.9 | |
| 20260506164555 | 13 | 0.0 | 0.0 | 0.08 | 0.36 | 0.20 | 95 | 1004.0 | |
| 20260506163045 | 12 | 0.0 | 0.0 | 0.10 | 0.36 | 0.20 | 95 | 1003.9 | |
| 20260506161538 | 12 | 0.0 | 0.0 | 0.13 | 0.30 | 0.15 | 95 | 1004.2 | |
| 20260506160038 | 12 | 0.0 | 0.0 | 0.15 | 0.30 | 0.15 | 95 | 1004.2 | |
| 20260506154541 | 12 | 0.0 | 0.0 | 0.13 | 0.28 | 0.13 | 95 | 1004.1 | |
| 20260506153036 | 12 | 0.0 | 0.0 | 0.10 | 0.25 | 0.10 | 94 | 1004.2 | |
| 20260506151539 | 12 | 0.0 | 0.0 | 0.03 | 0.18 | 0.03 | 95 | 1004.3 | |
| 20260506150041 | -17 | 0.0 | 0.0 | 0.00 | 0.15 | 0.00 | 1004.0 | ||
| 20260506144531 | -17 | 0.0 | 0.0 | 0.00 | 0.15 | 0.00 | 1003.9 | ||
| 20260506143026 | -17 | 0.0 | 0.0 | 0.00 | 0.15 | 0.00 | 1004.0 | ||
| 20260506141529 | -17 | 0.0 | 0.0 | 0.00 | 0.15 | 0.00 | 1004.1 | ||
| 20260506140017 | -17 | 0.0 | 0.0 | 0.00 | 0.15 | 0.00 | 1004.0 | ||
| 20260506134513 | -17 | 0.0 | 0.0 | 0.00 | 0.15 | 0.00 | 1004.2 | ||
| 20260506133009 | -17 | 0.0 | 0.0 | 0.00 | 0.15 | 0.00 | 1004.6 | ||
| 20260506131617 | -17 | 0.0 | 0.0 | 0.00 | 0.15 | 0.00 | 1004.8 | ||
| 20260506130002 | -17 | 0.0 | 0.0 | 0.00 | 0.15 | 0.00 | 1005.0 | ||
| 20260506124557 | -17 | 0.0 | 0.0 | 0.00 | 0.15 | 0.00 | 1005.2 | ||
| 20260506123056 | -17 | 0.0 | 0.0 | 0.00 | 0.15 | 0.00 | 1004.8 | ||
| 20260506121555 | -17 | 0.0 | 0.0 | 0.00 | 0.15 | 0.00 | 1004.8 | ||
| 20260506120058 | -17 | 0.0 | 0.0 | 0.00 | 0.15 | 0.00 | 1004.8 | ||
| 20260506114541 | -17 | 0.0 | 0.0 | 0.00 | 0.15 | 0.00 | 1005.1 | ||
| 20260506113037 | -17 | 0.0 | 0.0 | 0.00 | 0.15 | 0.00 | 1005.0 | ||
| 20260506111533 | -17 | 0.0 | 0.0 | 0.00 | 0.15 | 0.00 | 1005.0 | ||
| 20260506110030 | -17 | 0.0 | 0.0 | 0.00 | 0.15 | 0.00 | 1005.1 |